Dewpoint
11 12 13 16 17 19 25 29 33 35 35 40 44 43 45 63 63 62 62 60 57 55 53 53 52 52 51 49 47 43 40 38 36 34 30 28 29 28 30 32 34 35 38
10 10 13 13 16 18 22 28 31 34 37 40 45 44 46 51 63 62 61 60 56 53 53 52 52 52 50 48 44 43 41 39 41 38 33 28 26 27 27 29 31 33 34
9 10 11 13 15 17 20 24 30 33 36 37 40 45 46 54 62 61 60 58 55 52 52 52 52 51 49 47 44 43 42 40 35 38 29 27 26 25 27 27 29 31 32
10 11 11 13 14 16 18 23 29 33 35 38 39 43 43 44 60 60 60 57 55 52 52 52 51 50 48 46 45 44 44 42 38 31 28 27 26 24 24 26 27 29 30
10 11 12 13 16 16 17 20 26 32 35 37 38 44 42 47 55 60 59 56 54 51 51 51 50 49 48 46 44 44 43 42 40 31 29 27 27 26 26 24 25 27 28
10 11 13 14 16 17 19 21 25 32 34 39 39 42 41 45 45 59 57 55 53 51 51 50 49 48 47 45 45 44 42 42 40 32 28 25 25 25 26 25 26 25 27
11 13 14 15 17 18 20 23 26 31 34 37 38 43 42 45 47 56 57 55 53 51 50 49 49 47 46 45 45 43 41 41 38 31 28 27 28 28 27 25 26 26 27
12 13 15 16 18 20 21 23 27 31 34 37 37 42 44 46 49 55 58 55 53 51 50 49 48 46 45 45 44 42 41 39 37 31 29 29 30 29 28 28 27 26 27
14 15 16 19 19 20 22 26 29 31 34 36 38 42 43 46 50 57 58 56 53 51 49 49 47 45 45 44 43 42 41 38 36 32 30 30 31 30 30 30 27 28 26
16 16 19 19 19 21 24 28 31 32 34 36 35 38 42 47 53 59 58 56 54 51 49 48 47 45 44 44 43 42 40 38 36 34 31 32 32 30 31 32 31 30 29
18 20 20 20 21 23 27 30 32 32 33 37 34 37 43 49 56 59 57 56 54 51 49 48 46 44 44 43 42 40 37 37 35 33 31 32 31 31 32 32 32 31 30
19 21 20 20 21 26 29 32 33 34 36 36 35 39 46 53 57 59 57 56 54 51 49 48 45 44 43 41 41 38 36 36 34 33 32 32 31 31 32 32 32 31 31
20 19 19 19 23 27 30 33 34 35 36 35 38 41 51 55 58 58 57 55 53 51 49 47 44 43 41 41 40 38 36 35 34 33 31 32 32 32 32 32 32 32 30
19 20 20 21 24 27 30 35 35 36 37 36 40 41 53 56 57 58 56 54 52 51 49 47 44 42 41 40 38 37 36 34 33 33 32 33 32 31 32 32 32 31 30
17 19 20 22 25 27 30 36 35 35 35 38 38 47 55 56 57 56 55 54 52 50 48 45 43 42 40 39 38 37 35 33 32 33 33 34 34 36 34 32 32 30 30
17 19 20 21 23 25 29 35 33 34 36 37 42 53 56 56 56 55 55 53 52 49 47 45 44 43 39 42 42 38 35 33 32 32 33 34 37 38 39 39 36 32 30
17 18 20 22 24 25 29 34 38 41 43 47 52 55 55 55 55 55 54 53 51 49 47 47 46 44 42 43 43 42 35 34 33 31 32 33 34 38 37 39 38 36 35
18 19 21 22 24 27 32 36 41 48 50 52 52 54 55 54 54 54 53 52 50 49 48 47 46 45 45 44 43 42 36 35 33 32 31 32 36 36 36 35 33 33 32
20 21 23 24 27 32 35 38 45 50 52 52 52 53 54 54 53 53 53 51 50 49 49 48 47 47 47 45 44 41 37 34 33 32 32 33 34 40 38 33 31 29 29
20 21 23 26 30 33 38 43 49 50 51 52 52 53 53 53 53 53 53 52 51 50 49 48 48 47 45 45 44 44 40 35 34 33 34 38 36 41 38 31 29 28 28
20 23 23 24 29 34 43 50 51 50 51 52 52 52 52 51 51 51 50 50 49 49 48 48 48 47 45 45 45 45 40 36 34 34 35 36 41 41 38 33 29 29 29
20 21 22 23 29 35 43 48 47 49 51 50 49 49 49 50 50 49 49 49 48 47 47 46 46 46 45 45 45 44 42 39 36 35 36 39 40 39 38 33 35 34 30
20 21 22 23 28 34 35 36 38 48 48 47 46 46 47 47 47 46 46 45 46 45 45 45 43 43 45 45 45 45 44 43 41 39 40 40 39 38 35 37 36 32 26
19 21 21 22 25 31 33 34 36 43 42 39 39 41 40 38 40 42 44 43 43 43 43 42 42 43 43 43 44 44 44 43 41 41 41 40 38 36 36 35 30 25 24
19 20 20 22 25 29 32 34 35 38 36 36 36 36 38 38 37 38 39 40 40 44 43 43 42 41 40 42 43 42 41 41 41 39 37 34 34 34 29 24 23 24 24
19 19 20 22 24 27 30 32 34 35 37 36 36 37 38 39 39 39 39 42 42 43 43 43 43 42 43 43 42 42 41 41 40 36 33 33 32 30 26 23 22 23 25
Lifted_Index
9 10 12 14 15 16 17 18 19 19 17 14 11 7 3 0 -0 -0 0 1 1 2 2 3 3 4 4 5 6 7 9 10 11 11 11 12 12 12 13 13 13 13 13
9 9 11 13 14 16 17 18 18 19 18 16 13 9 5 2 0 -0 0 1 1 2 2 3 3 4 4 5 6 7 8 10 11 11 12 12 12 13 14 15 14 14 14
9 10 11 12 14 15 17 18 18 18 19 18 15 10 6 3 1 -0 0 1 2 2 2 3 4 4 5 5 5 6 8 9 11 12 12 12 12 13 15 17 17 16 16
10 10 11 12 13 15 17 18 18 18 18 18 15 11 6 3 1 0 0 1 2 2 3 3 4 4 5 5 5 6 7 9 11 12 13 13 13 13 14 16 17 18 18
10 11 11 12 13 15 16 17 18 18 18 17 16 13 7 4 2 0 0 1 2 3 3 4 4 4 5 5 5 5 6 8 10 12 13 13 13 13 12 13 15 17 18
10 10 11 11 12 14 16 17 18 19 18 17 17 14 9 5 3 1 0 1 2 3 4 4 4 5 5 5 5 5 6 8 10 11 13 13 13 13 12 12 12 14 15
10 10 10 11 11 13 15 17 18 19 18 17 16 14 10 6 4 2 1 1 2 3 4 4 4 4 5 5 5 5 6 8 10 11 13 13 13 13 13 12 12 12 13
10 10 11 11 11 12 14 17 18 18 18 16 15 14 10 6 4 3 1 1 2 3 4 4 4 4 4 5 5 6 6 8 10 11 13 14 14 14 14 13 13 12 12
11 11 11 12 11 12 14 16 18 18 17 16 14 12 9 6 4 3 2 1 1 2 3 4 4 4 3 4 5 5 6 8 9 11 13 14 15 15 15 14 13 13 12
12 12 12 12 12 12 14 16 17 17 17 15 13 11 8 6 4 2 2 1 1 1 2 3 3 3 3 3 4 5 6 7 8 10 12 13 14 15 15 14 14 13 13
13 13 12 11 11 12 14 16 17 17 16 14 12 10 9 6 4 2 2 1 1 1 2 3 3 3 2 3 4 4 5 5 7 9 11 12 13 14 14 14 14 14 13
13 12 11 10 10 11 13 15 16 16 15 13 11 10 9 6 3 2 2 1 1 1 1 2 3 3 2 2 3 4 4 4 5 7 9 11 13 14 14 14 13 13 13
12 11 10 9 9 10 12 13 14 14 14 12 10 9 8 5 3 2 2 1 1 1 1 2 2 2 2 2 3 3 3 4 4 6 8 11 13 14 14 13 13 13 13
10 9 8 7 7 9 11 11 12 13 12 10 9 8 6 4 2 2 2 2 1 1 1 1 2 2 2 3 3 3 3 4 4 5 8 11 13 14 14 13 13 13 13
9 8 6 6 6 8 10 10 11 11 10 9 8 6 4 2 2 2 2 2 1 1 1 1 2 2 2 3 3 3 3 4 4 5 7 11 13 14 14 13 13 13 13
8 7 6 5 6 7 9 10 10 10 8 7 5 3 2 2 2 2 2 2 2 1 1 1 2 2 2 2 3 3 3 4 4 5 7 10 13 14 14 14 13 13 13
9 8 6 5 5 7 9 9 8 7 5 4 3 1 1 1 2 3 2 2 2 2 2 2 2 2 2 2 2 2 3 4 4 5 6 10 13 14 14 14 14 14 14
11 9 7 5 5 6 8 8 6 3 2 2 1 1 1 2 3 3 3 2 2 2 2 2 2 2 2 2 2 2 3 4 4 4 6 10 13 14 14 14 14 13 13
12 11 8 5 4 5 5 5 3 1 0 1 1 1 1 2 3 3 3 2 2 2 2 2 2 2 3 3 2 3 3 4 5 5 7 10 12 13 13 13 12 12 11
12 11 8 4 2 2 2 1 1 -0 0 1 1 1 1 2 2 3 3 2 2 2 2 3 3 3 3 3 3 3 4 5 5 6 8 11 12 12 12 12 11 11 11
10 9 6 3 1 0 -0 -1 -1 -1 -0 0 0 1 1 1 2 3 3 3 2 2 3 3 3 3 3 3 4 4 5 6 6 7 8 11 12 12 11 11 11 11 12
9 8 5 3 1 -1 -1 -1 -1 -1 -1 -1 -0 0 1 2 2 3 3 3 3 3 3 4 4 4 4 5 5 5 5 6 6 7 8 10 11 11 10 10 11 12 12
10 9 6 3 1 -0 -1 -1 -2 -1 -1 -1 -0 0 1 2 2 3 3 3 4 4 4 4 4 5 5 6 6 6 6 6 6 7 8 9 10 9 9 10 11 11 11
12 11 8 4 2 1 -1 -1 -1 -1 -1 -0 -0 0 1 2 2 3 3 3 4 4 4 5 5 5 6 7 7 7 7 6 7 7 8 9 9 9 9 9 10 10 11
13 12 9 7 4 2 0 -0 -0 -0 -0 0 0 1 2 2 3 3 4 4 4 5 5 5 6 6 6 7 7 7 7 7 8 8 9 9 9 9 9 9 9 10 11
14 13 11 8 6 3 1 0 0 -0 -0 0 1 1 2 2 3 3 4 4 5 5 6 6 6 6 7 7 7 7 7 8 8 9 9 9 9 9 8 8 9 10 11